Theta_e
316 316 315 315 316 316 316 315 316 318 318 317 316 317 317 316 319 309 301 310 317 325 323 305 300 297 296 293 297 294 286 283 287 288 289 291 290 293 293 292 292 293 293 295 302
313 313 313 313 312 312 313 313 314 314 315 317 318 316 316 317 310 304 313 319 323 326 308 299 294 294 290 292 293 289 284 286 290 290 289 291 291 291 290 290 290 292 296 300 303
313 313 312 312 312 312 312 312 312 312 312 313 314 317 315 314 301 297 317 324 324 324 308 300 295 294 290 291 291 289 285 289 291 291 292 291 290 293 290 287 291 292 295 298 300
312 312 312 312 312 312 312 312 312 312 312 313 313 313 315 307 284 295 323 328 326 316 301 295 292 290 288 288 292 287 291 292 293 293 292 290 293 290 290 290 293 295 299 298 297
311 311 311 311 311 311 311 311 312 312 313 313 312 312 308 297 297 307 317 318 316 303 297 293 290 289 286 287 289 288 290 293 294 293 291 292 290 291 291 293 295 297 298 298 298
311 310 310 310 310 310 310 310 311 312 313 313 313 311 302 289 303 306 306 309 307 301 297 294 292 292 289 289 288 290 291 291 291 292 291 290 289 291 292 294 294 295 295 296 297
310 310 310 309 309 309 310 310 310 310 312 314 314 306 297 295 303 305 305 304 305 300 294 295 296 293 292 289 293 291 287 288 289 291 290 291 287 287 293 293 292 293 294 294 295
309 309 309 308 308 309 309 309 309 310 311 314 315 304 291 303 305 304 305 300 299 302 297 296 297 295 292 292 291 287 286 282 288 290 291 291 282 289 293 291 291 290 292 293 294
309 309 308 308 308 308 309 309 309 309 311 312 303 297 289 306 301 304 305 298 294 295 297 301 297 292 291 286 283 283 277 280 285 291 290 287 283 289 291 293 292 291 289 291 292
309 308 308 307 308 309 309 306 307 307 302 306 304 294 296 294 301 303 301 301 291 294 294 292 289 286 284 284 278 279 277 280 281 286 288 285 284 289 289 292 291 290 289 289 287
308 308 307 307 308 308 302 294 292 288 293 288 288 290 292 299 302 300 295 294 294 292 283 287 283 282 282 285 285 284 280 280 283 289 287 285 285 288 289 288 287 286 286 281 284
308 308 307 307 308 308 296 292 294 295 286 293 293 293 295 296 291 296 299 291 291 286 286 284 280 284 288 288 286 284 281 279 284 286 286 283 284 288 287 286 286 285 284 283 284
307 308 308 307 307 297 293 295 301 299 288 288 292 291 292 294 290 292 299 292 288 284 283 281 284 289 288 286 285 283 284 282 282 282 282 280 279 279 283 285 286 285 282 280 279
308 308 308 308 297 295 293 300 302 300 281 281 288 291 294 292 288 299 301 294 288 283 284 284 288 288 287 285 287 280 286 287 284 281 275 279 270 277 280 278 282 281 281 281 278
308 308 307 306 295 292 297 300 299 295 262 283 290 297 296 288 289 293 299 295 285 285 285 282 284 284 284 285 287 281 284 284 282 278 276 276 270 275 279 276 280 280 281 280 275
308 307 306 298 295 297 299 297 291 271 260 280 289 287 288 290 288 293 294 296 295 288 287 285 288 286 284 283 287 285 282 281 280 277 267 270 272 274 274 276 279 279 280 280 277
308 307 300 299 291 298 295 287 271 264 281 281 283 286 286 286 287 287 286 286 283 278 280 286 285 283 284 281 284 282 281 271 269 268 266 272 272 274 279 279 277 276 279 278 272
307 303 297 297 297 296 287 276 263 276 279 285 285 285 282 285 285 285 284 281 286 282 272 279 277 284 284 282 279 279 279 267 261 263 267 276 269 276 277 276 273 274 272 277 276
304 291 291 293 298 295 283 267 269 274 284 283 283 278 276 284 283 285 282 283 285 286 275 276 275 282 282 282 283 279 275 278 269 270 268 272 274 276 276 276 276 274 272 270 272
291 286 287 295 295 290 276 276 278 286 286 284 277 280 276 280 278 281 276 285 285 287 287 280 273 281 282 284 283 281 282 275 270 263 266 269 270 273 273 274 276 274 271 268 270
286 281 288 294 291 283 274 276 282 287 287 283 279 280 280 280 281 281 281 285 287 286 286 280 277 275 279 278 277 277 272 275 274 270 262 263 271 272 270 272 273 272 270 266 267
283 274 288 289 276 272 273 281 286 286 288 285 283 282 281 283 280 281 280 283 288 288 282 283 277 273 275 279 281 278 277 277 269 264 269 266 271 274 270 270 271 271 268 264 265
281 282 288 286 269 270 279 281 285 284 284 284 282 284 284 282 275 281 283 287 288 286 282 283 272 270 273 277 279 276 278 276 272 269 268 266 271 277 274 271 271 268 267 267 268
280 275 279 278 275 273 275 278 279 286 285 284 283 283 282 280 283 280 282 286 287 286 289 284 272 267 268 268 272 269 272 277 274 272 264 268 271 273 275 273 273 271 266 267 271
281 274 279 271 273 274 274 277 278 279 284 284 281 282 282 274 276 278 282 283 284 284 280 274 270 271 274 276 275 275 269 268 267 272 271 269 269 274 274 273 272 269 265 268 271
278 276 278 274 278 272 272 273 278 280 281 281 280 283 283 278 280 277 278 277 277 277 273 273 275 270 268 275 274 273 276 274 271 274 272 270 271 277 273 271 270 267 266 272 274
284 284 285 277 272 269 271 279 279 281 283 285 284 282 280 283 286 283 283 280 277 271 267 266 269 264 263 271 264 265 266 270 272 271 274 271 276 276 274 276 274 269 267 274 276
Wind_Speed
19 19 20 20 21 21 22 22 22 23 21 21 22 21 20 22 22 7 10 12 9 19 9 5 3 4 4 2 2 3 3 4 6 8 4 1 2 2 2 6 3 3 6 2 14
19 20 21 21 21 22 22 21 22 22 24 23 21 20 21 21 16 14 16 18 18 11 7 9 7 6 3 4 2 4 4 9 5 4 4 1 1 3 3 3 3 2 5 11 14
20 21 21 21 22 22 22 22 23 23 23 24 23 20 17 18 8 12 6 13 20 17 9 6 6 7 5 3 5 6 6 5 3 2 3 3 2 1 6 2 5 6 7 10 12
22 22 22 23 24 24 24 24 24 24 25 24 21 23 16 6 10 1 8 7 20 6 9 7 5 8 6 7 5 3 6 4 2 2 3 2 2 1 3 1 1 7 13 10 11
22 22 23 23 23 24 25 25 26 27 26 24 22 19 9 7 14 13 20 10 5 7 10 7 6 7 7 6 5 5 4 5 6 3 3 5 3 5 4 5 5 9 9 12 12
22 23 24 24 24 25 26 27 27 29 27 24 20 15 9 20 8 6 7 6 5 6 7 7 8 8 6 5 8 5 7 5 3 4 3 6 4 6 7 6 6 9 10 9 11
23 23 24 25 26 27 28 29 29 32 30 25 18 8 13 27 9 11 15 5 3 7 6 6 6 6 7 2 5 3 3 1 4 4 5 6 5 8 9 6 10 10 9 8 8
23 24 25 26 28 29 30 31 34 30 28 25 10 6 12 3 8 18 6 6 5 4 2 5 6 4 5 2 5 5 3 4 3 7 5 7 8 4 5 7 9 10 8 8 6
24 26 26 28 30 30 31 31 30 29 23 8 4 5 10 6 6 14 10 6 3 3 4 5 5 5 4 6 3 3 3 4 4 7 4 7 4 6 2 8 7 8 8 6 6
25 26 27 29 30 30 29 28 24 12 8 1 2 4 7 4 4 7 5 11 4 6 4 4 4 5 3 5 10 4 3 2 4 2 4 4 6 5 3 4 6 7 7 7 6
24 26 28 28 29 29 14 6 9 5 11 11 16 15 19 11 9 6 4 8 5 5 6 1 4 12 6 4 5 4 3 4 3 4 5 7 7 8 3 2 6 6 6 5 6
25 26 27 30 31 19 4 6 8 8 19 12 22 22 23 16 11 16 3 7 8 6 5 4 8 5 7 5 5 4 4 3 4 3 4 3 8 8 2 1 2 6 7 8 6
26 26 26 27 26 4 3 2 7 6 7 13 4 5 6 8 12 8 1 6 7 6 4 6 3 12 8 5 6 3 6 3 6 2 2 1 5 5 3 3 3 5 4 3 6
26 26 25 27 5 5 6 6 10 1 4 8 6 5 5 2 5 8 3 8 4 9 9 5 5 6 4 4 8 5 9 10 5 2 3 3 6 5 0 1 3 3 5 6 5
25 26 28 19 4 3 7 10 7 2 4 9 6 3 12 5 2 3 3 4 4 7 7 7 3 5 6 7 9 3 4 6 3 4 1 3 4 7 2 3 5 5 5 6 4
27 27 26 5 3 5 8 7 3 7 6 8 5 11 9 6 3 3 6 2 7 4 3 6 2 3 6 4 7 7 7 7 4 3 2 6 5 5 3 6 3 4 5 7 4
26 28 13 2 4 7 5 4 7 6 6 9 9 10 6 6 4 6 2 7 3 6 4 0 3 3 3 8 5 5 7 3 3 3 6 4 2 8 4 0 3 8 7 6 2
28 22 7 3 5 5 4 7 7 4 4 5 7 12 3 9 4 3 3 3 1 3 4 5 4 3 6 6 8 3 7 7 7 4 4 4 6 7 2 4 2 5 4 4 4
22 4 4 4 7 2 5 6 5 4 6 8 14 4 6 2 3 3 1 1 5 6 6 4 3 2 4 3 3 4 3 3 8 1 2 3 6 2 2 4 4 6 3 4 4
5 4 4 6 7 4 6 4 3 6 8 4 4 4 5 6 6 2 4 1 2 3 2 3 6 3 3 4 8 2 5 4 4 3 4 4 4 5 4 6 5 4 4 5 4
5 5 4 10 3 6 4 4 7 10 8 3 3 5 5 5 3 5 5 3 3 3 3 4 5 2 2 2 7 3 1 4 5 4 6 1 6 5 6 8 9 6 6 5 5
3 4 5 6 6 2 3 10 9 5 4 4 3 3 4 5 6 4 4 6 8 1 4 3 5 4 2 2 3 1 5 5 6 5 3 3 7 3 4 5 7 6 6 4 5
3 3 5 6 4 4 5 6 3 7 6 6 4 5 4 5 4 5 7 6 9 4 3 2 1 4 4 4 5 2 2 5 5 3 6 6 6 2 3 2 4 5 5 5 5
3 5 6 5 0 2 5 5 10 7 5 4 4 5 8 4 3 4 5 6 8 7 10 2 4 6 7 7 4 3 1 4 5 3 4 6 4 3 4 4 5 6 6 6 6
4 3 2 5 5 5 2 3 11 8 3 5 4 8 7 3 5 3 3 4 5 10 5 5 3 3 3 1 1 3 4 3 5 5 6 5 7 7 6 8 7 5 2 2 4
3 3 3 4 5 4 6 4 7 9 4 4 3 11 5 3 5 4 2 1 1 6 4 6 3 3 5 5 1 2 4 5 2 2 5 2 7 7 2 3 2 5 3 3 4
0 0 1 3 4 3 3 6 10 15 6 7 4 4 4 3 6 4 3 4 1 4 2 4 4 3 3 4 3 5 6 4 2 3 5 5 5 4 3 6 4 4 4 4 4
Wind_Direction
359 356 354 351 347 344 338 332 329 331 327 324 325 324 326 324 317 303 250 223 199 232 169 123 158 162 96 179 141 136 89 205 210 164 226 23 141 5 49 102 55 24 138 219 123
354 351 350 345 342 338 333 331 331 329 325 324 318 320 323 324 313 278 241 236 229 228 155 164 170 134 157 189 193 131 165 215 225 185 169 105 117 138 106 75 24 39 38 116 131
354 352 351 346 342 341 337 330 328 324 317 316 315 316 322 327 311 244 243 229 225 215 162 168 119 135 174 146 201 174 208 224 239 177 130 121 78 359 121 206 197 194 149 142 142
355 352 347 348 344 340 336 330 326 323 319 313 308 309 318 301 268 160 349 315 195 189 138 146 129 147 171 189 186 177 220 219 227 140 102 169 137 357 173 179 19 190 160 148 163
353 351 347 342 338 336 333 328 321 318 313 307 306 302 309 248 251 300 303 320 144 124 154 166 149 142 179 186 159 216 210 205 245 283 208 124 198 207 228 181 59 120 150 172 174
353 349 344 339 336 333 331 326 321 315 308 303 292 289 283 256 267 296 321 265 177 134 174 150 183 186 181 196 170 203 207 240 239 198 216 168 229 146 249 160 124 154 188 186 178
350 346 342 337 335 331 329 325 319 312 306 305 283 254 256 245 306 282 312 290 222 175 161 193 157 149 150 175 185 148 162 285 224 207 229 162 261 223 221 156 182 190 193 197 203
346 343 341 338 336 331 329 325 316 305 308 311 265 203 250 280 243 262 264 260 223 207 201 173 147 132 134 114 28 138 75 182 259 176 244 131 251 279 192 179 195 196 206 195 172
345 342 339 336 333 331 328 324 311 303 310 324 119 178 260 293 226 248 197 221 168 173 161 109 117 149 85 105 31 352 204 207 308 198 141 183 275 258 283 186 203 198 191 155 120
345 342 340 337 333 332 331 322 309 322 357 296 215 206 266 270 319 273 220 171 160 125 78 95 72 119 82 143 210 199 183 255 225 179 160 190 259 299 350 141 148 137 120 122 107
342 342 339 336 335 334 342 355 13 336 1 248 263 273 293 295 326 314 191 122 132 104 142 149 130 203 166 163 147 148 178 207 232 246 153 214 224 231 263 45 119 134 128 109 99
340 339 338 335 333 335 15 37 11 290 308 259 259 255 255 273 295 292 186 153 180 161 112 74 235 166 160 163 153 158 184 257 299 251 157 156 248 246 143 301 316 178 156 156 130
337 338 337 335 327 10 355 313 335 342 284 305 251 256 275 175 223 247 240 344 135 130 155 155 194 175 145 157 186 204 224 232 210 330 76 123 302 286 98 60 57 39 114 108 147
335 334 336 336 1 315 319 324 331 180 291 284 4 314 335 217 243 175 199 143 211 176 146 209 238 115 132 196 191 199 195 218 201 131 226 29 266 282 292 32 71 98 130 147 144
333 334 336 339 272 325 304 323 314 151 8 320 310 282 308 210 290 249 228 237 181 155 135 236 214 192 176 203 165 210 112 154 104 93 24 343 61 268 50 282 223 196 176 176 186
332 335 338 343 330 256 311 312 55 43 278 317 328 332 348 351 7 25 132 69 311 146 81 191 167 144 155 77 140 140 73 52 62 104 6 239 144 274 201 214 178 166 177 175 174
330 333 341 296 278 312 314 28 38 96 333 321 331 326 333 331 348 14 129 144 183 119 197 173 20 357 111 86 56 92 86 37 13 5 220 246 78 243 247 138 215 180 170 173 148
329 332 328 272 306 325 32 50 68 262 268 306 301 317 360 3 8 360 139 137 210 76 109 156 173 334 336 132 164 148 137 153 184 195 247 158 226 254 290 327 304 111 142 155 147
334 329 351 292 309 344 58 46 207 250 310 313 316 354 316 341 17 328 260 155 194 188 137 130 89 6 15 76 152 168 177 171 104 252 47 229 290 342 32 52 98 109 104 230 259
346 339 294 322 314 53 65 319 295 313 321 319 300 22 316 322 350 279 163 355 179 172 66 185 106 93 301 57 19 87 150 89 5 128 235 292 274 247 222 205 181 188 236 268 281
50 1 270 330 4 45 47 286 301 301 320 271 295 288 285 306 277 353 10 69 322 112 171 133 97 236 133 176 177 137 44 60 110 121 160 227 266 213 221 206 192 216 234 248 280
52 356 309 1 44 5 6 313 296 305 320 312 310 303 304 303 350 18 36 5 353 27 73 46 105 118 168 310 302 144 153 134 122 251 106 141 275 331 263 201 169 219 241 260 242
15 286 316 52 59 333 303 298 296 320 310 340 308 16 313 309 27 13 3 354 2 55 80 126 294 92 18 354 349 196 148 112 110 105 196 133 263 50 76 89 223 212 256 272 269
52 357 323 43 319 112 321 302 336 317 291 333 289 335 334 345 2 360 12 8 352 16 27 153 103 143 179 203 143 143 77 136 115 137 184 222 259 252 226 231 251 253 225 241 251
47 276 194 315 323 326 298 302 332 339 331 319 322 5 335 322 341 360 354 9 2 354 18 75 93 82 30 59 64 138 143 158 156 171 175 242 202 255 215 210 229 259 245 274 285
95 62 351 285 309 359 340 307 314 326 267 300 5 333 343 16 7 315 8 67 309 354 43 351 103 76 3 42 72 228 229 188 172 196 261 185 266 228 270 150 238 231 212 269 282
62 325 217 283 330 42 258 335 314 313 272 251 326 304 319 24 1 355 51 56 107 132 44 67 112 75 256 350 360 349 232 181 176 221 169 217 242 175 237 243 247 232 225 264 285